Regional Weather Roundup
Issued by NWS

Home | Current Version | Previous Version | Text Only | Print | Product List | Glossary On
Versions: 1 2 3 4 5 6 7 8 9 10 11 12 13 14 15 16 17 18 19 20 21 22 23 24 25 26 27
000
ASUS44 KBMX 242310
RWRAL

ALABAMA REGIONAL WEATHER ROUNDUP
NATIONAL WEATHER SERVICE BIRMINGHAM AL
600 PM CDT TUE MAY 24 2016

NOTE: "FAIR" INDICATES FEW OR NO CLOUDS BELOW 12,000 FEET
WITH NO SIGNIFICANT WEATHER AND/OR OBSTRUCTIONS TO VISIBILITY.

THE REMARK "TC" DENOTES TEMPERATURE IN DEGREES CELSIUS.

ALZ001>011-014-016>018-020-250000-
NORTH ALABAMA

CITY           SKY/WX    TMP DP  RH WIND       PRES   REMARKS
MUSCLE SHOALS  SUNNY     85  54  34 S7        30.07S
HUNTSVILLE     MOSUNNY   85  49  28 SW7       30.08S
DECATUR        SUNNY     83  53  35 S9        30.08S
HALEYVILLE     FAIR      83  55  38 S6        30.11S
GADSDEN        SUNNY     84  56  38 S5        30.10S
$$

ALZ012-013-022-023-030>036-040>044-250000-
WEST CENTRAL ALABAMA

CITY           SKY/WX    TMP DP  RH WIND       PRES   REMARKS
TUSCALOOSA     SUNNY     85  56  37 S9        30.07F
$$

ALZ015-024>027-033>036-040>044-250000-
CENTRAL ALABAMA

CITY           SKY/WX    TMP DP  RH WIND       PRES   REMARKS
BIRMINGHAM     MOSUNNY   85  51  31 SE7       30.11S
MONTGOMERY     SUNNY     86  50  28 S5        30.09S
SHELBY CO ARPT SUNNY     84  54  35 S7        30.09F
MAXWELL AFB    SUNNY     87  53  31 S6        30.09S
GREENVILLE     FAIR      86  53  32 CALM      30.09S
$$

ALZ019-021-028-029-037-038-045>048-250000-
EAST CENTRAL ALABAMA

CITY           SKY/WX    TMP DP  RH WIND       PRES   REMARKS
ANNISTON       SUNNY     84  52  33 W7        30.10F
ALEXANDER CITY SUNNY     82  58  43 CALM      30.12S
AUBURN         SUNNY     82  53  36 SE3       30.13S
$$

ALZ051>064-250000-
SOUTHWEST ALABAMA

CITY           SKY/WX    TMP DP  RH WIND       PRES   REMARKS
MOBILE         SUNNY     82  54  37 SE10      30.11S
BROOKLEY FIELD SUNNY     79  66  64 S10       30.11S
EVERGREEN      SUNNY     85  58  39 S5        30.09S
$$

ALZ049-050-065>069-250000-
SOUTHEAST ALABAMA

CITY           SKY/WX    TMP DP  RH WIND       PRES   REMARKS
DOTHAN         SUNNY     86  46  24 CALM      30.13S
OZARK          SUNNY     87  53  31 S6        30.09S
TROY           SUNNY     86  57  37 CALM      30.10S
EUFAULA        FAIR      87  51  28 S3        30.09S
$$




USA.gov is the U.S. government's official web portal to all federal, state and local government web resources and services.